Flag for Canada Weather past 2 weeks in Belleville, Ontario, Canada

Now
12 °F

Passing clouds.


Feels Like: 2 °F
Forecast: 1 / 12 °F
Wind: 7 mph from Northeast

Location: Trenton

Current Time: Jan 25, 2015 at 9:34:24 PM

Latest Report: Jan 25, 2015 at 9:00 PM


Visibility: 15 mi

Pressure: 30.11 "Hg

Humidity: 52%

Dew point: -2 °F

Location of BellevilleLocation

Historic Weather in Belleville — Graph

°F

Belleville temperature yesterday

Maximum temperature yesterday: 32 °F (at 10:00 PM)
Minimum temperature yesterday: 23 °F (at 7:00 AM)
Average temperature yesterday: 29 °F

Past Weeks' High & Low Weather Summary

 TemperatureHumidityPressure
High37 °F (Jan 18, 4:00 AM)100% (Jan 12, 5:00 AM)30.88 "Hg (Jan 12, 5:00 AM)
Low-11 °F (Jan 13, 7:00 AM)30% (Jan 13, 4:00 AM)29.42 "Hg (Jan 24, 11:00 PM)
Average19 °F70%30.10 "Hg
* Reported Jan 10 8:00 PM — Jan 25 8:00 PM, Belleville, Weather by CustomWeather, © 2014

Note: Actual official high and low records may vary slightly from our data, if they occured in-between our weather recording intervals... More about our weather records

Advertising

Belleville weather history for previous 24 hours

 ConditionsComfort  
Time TempWeatherWind HumidityBarometerVisibility
8:00 PM
Jan 25
12 °FPassing clouds.6 mph57%30.10 "Hg15 mi
7:00 PM14 °FPassing clouds.6 mph48%30.08 "Hg15 mi
6:00 PM14 °FPassing clouds.5 mph48%30.05 "Hg15 mi
5:00 PM18 °FPassing clouds.5 mph38%30.01 "Hg15 mi
4:00 PM19 °FPassing clouds.7 mph35%29.99 "Hg15 mi
3:00 PM19 °FPassing clouds.7 mph42%29.98 "Hg15 mi
2:00 PM18 °FPassing clouds.6 mph41%29.95 "Hg15 mi
1:00 PM16 °FPassing clouds.2 mph45%29.94 "Hg15 mi
12:00 PM14 °FSunny.8 mph52%29.94 "Hg15 mi
11:00 AM12 °FSunny.10 mph62%29.94 "Hg15 mi
10:00 AM12 °FSunny.9 mph62%29.92 "Hg15 mi
9:00 AM10 °FSunny.7 mph72%29.90 "Hg15 mi
8:00 AM9 °FSunny.6 mph72%29.88 "Hg15 mi
7:00 AM10 °FClear.10 mph67%29.83 "Hg15 mi
6:00 AM12 °FPassing clouds.17 mph62%29.78 "Hg15 mi
5:00 AM18 °FPassing clouds.14 mph68%29.71 "Hg15 mi
4:00 AM21 °FPassing clouds.14 mph68%29.64 "Hg15 mi
3:00 AM25 °FPassing clouds.16 mph74%29.57 "Hg15 mi
2:00 AM28 °FPassing clouds.16 mph74%29.51 "Hg15 mi
1:00 AM32 °FPartly cloudy.24 mph75%29.44 "Hg9 mi
12:00 AM34 °FPassing clouds.15 mph75%29.43 "Hg9 mi
11:00 PM
Jan 24
32 °FSnow flurries. Ice fog.12 mph87%29.42 "Hg5 mi
10:00 PM32 °FIce fog.8 mph87%29.43 "Hg5 mi
9:00 PM30 °FIce fog.9 mph93%29.43 "Hg3 mi
Weather by CustomWeather, © 2014

See weather overviewHow to use our weather pages